STARLINK-3337 (50826 NORAD) Tracking and Keplerian Element Data

This shows tracking and keplerian element data for the satellite.

Feedback or suggestion? Click here.




ElementValue
Catalog50826
NameSTARLINK-3337
Epoch Orbit2197
Epoch Day140.58334491
Epoch Year2022
RAAN285.0489
Inclination53.2163
Eccentricity0.0001969
Argument of Perigee40.7927
Mean Anonmoly205.6904
Mean Motion15.08867448
Decay Rate-0.00057278
L11 50826U 22001Z 22140.58334491 -.00057278 00000+0 -36068-2 0 9997
L22 50826 53.2163 285.0489 0001969 40.7927 205.6904 15.08867448 21979

Live tracking and technical data element details for STARLINK-3337 (NORAD 50826). STARLINK-3337 can be tracked NOW for your location showing map with azimuth and elevation plus other details from your city location.

Track the satellite on the map from your city or location and see movement details for azimuth, elevation, latitude, longitude, range, height, and movement on the map or in text.







IsCatalogInMostPopularTable: catalog: 50826, numindb: 31
Update: records affected: 1



GetName: 50826 STARLINK-3337

Hit Count: updated at: Mon, 23 May 2022 20:42:27 GMT